Location: Aultman
(40.9284°N, 81.4173°W)
Time: 08:18:30
(UTC+00:00)

Cosmos 44 - Pass Details

Date: 24 January 2021
Orbit: 572 x 790 km, 65.1° (Epoch: 02 March)

Event Time Altitude Azimuth Distance (km) Brightness Sun altitude
Rises 23:12:36 0° 202° (SSW) 2,925 7.2 -7.7°
Reaches altitude 10° 23:14:49 10° 199° (SSW) 2,053 6.3 -8.1°
Maximum altitude 23:19:27 65° 118° (ESE) 755 3.3 -8.9°
Drops below altitude 10° 23:24:25 10° 38° (NE) 2,210 5.4 -9.8°
Enters shadow 23:25:12 - 37° (NE) 2,509 5.7 -10.0°
